Overview Statistics Trail Chart Weather Telemetry Raw packets
 

This is the latest recevied weather packets stored in our database for station/object EA5JMY-10. If no packets are shown the sender has not sent any weather packets the latest 10 day(s).

<< 20 21 22 23 24 25 26 >>
Time Temp. Humidity Pressure Rain* Wind** Luminosity Snow
1788145788 22.78° C 71% 1018 hPa - - - -
1788144888 23.33° C 71% 1017.9 hPa - - - -
1788143988 23.33° C 70% 1017.9 hPa - - - -
1788143088 23.33° C 70% 1018 hPa - - - -
1788142188 23.33° C 69% 1018 hPa - - - -
1788141285 23.33° C 67% 1018 hPa - - - -
1788140385 23.89° C 64% 1018 hPa - - - -
1788139484 25° C 60% 1017.9 hPa - - - -
1788138584 24.44° C 63% 1017.9 hPa - - - -
1788137684 25° C 64% 1018 hPa - - - -
1788136784 25.56° C 65% 1018 hPa - - - -
1788135884 25° C 67% 1017.9 hPa - - - -
1788134984 25.56° C 65% 1018 hPa - - - -
1788134084 26.11° C 64% 1017.9 hPa - - - -
1788133184 26.11° C 64% 1018 hPa - - - -
1788132284 26.11° C 64% 1017.9 hPa - - - -
1788131384 26.11° C 66% 1017.9 hPa - - - -
1788130483 26.11° C 65% 1017.9 hPa - - - -
1788129583 26.11° C 63% 1017.7 hPa - - - -
1788128683 26.67° C 60% 1017.8 hPa - - - -
1788127783 26.67° C 58% 1017.5 hPa - - - -
1788126883 26.67° C 57% 1017.5 hPa - - - -
1788125983 26.67° C 63% 1017.3 hPa - - - -
1788125083 27.22° C 64% 1017.1 hPa - - - -
1788124183 27.78° C 63% 1016.9 hPa - - - -

* Rain since midnight (hover to see other rain measurements)
** Current wind speed in m/s (hover to see current wind gust speed)